カタログに戻る

RAPIDEYE 3

運用中科学SSO
NORAD 33315·PAYLOAD·🇩🇪 Germany

打ち上げ Aug 29, 2008 から Baikonur Cosmodrome

Loading…

次のパス (今後24時間)

TLE

最新Source: Space-Track

元期: Sep 14, 2026, 12:56 UTC

1 33315U 08040D   26257.53956087  .00001360  00000-0  94305-4 0  9997
2 33315  97.3789 284.0687 0012285  91.2153 269.0483 15.07158276979733

AllMySatでRAPIDEYE 3をリアルタイム追跡

Download on the App Store